Home > Time Zones > World Clock > Weather > Iran > Yazd > Past weeks

Flag for Iran Weather past 2 weeks in Yazd, Iran

Now
79 °F

Clear.


Feels Like: 78 °F
Forecast: 62 / 93 °F
Wind: 2 mph from Northwest

Location: Yazd Airport

Current Time: Sep 3, 2015 at 10:20:26 PM

Latest Report: Sep 3, 2015 at 10:00 PM


Visibility: 10 mi

Pressure: 30.07 "Hg (26.16 "Hg at 1218m altitude)

Humidity: 21%

Dew point: 36 °F

Location of YazdLocation

Historic Weather in Yazd — Graph

°F

Yazd temperature yesterday

Maximum temperature yesterday: 91 °F (at 3:30 PM)
Minimum temperature yesterday: 73 °F (at 6:30 AM)
Average temperature yesterday: 82 °F

Past Weeks' High & Low Weather Summary

 TemperatureHumidityPressure
High106 °F (Aug 23, 3:30 PM)33% (Sep 2, 6:30 AM)30.12 "Hg (Sep 2, 6:30 AM)
Low68 °F (Sep 3, 7:00 AM)3% (Aug 24, 7:00 PM)29.71 "Hg (Aug 24, 5:00 PM)
Average89 °F13%29.96 "Hg
* Reported Aug 19 8:30 PM — Sep 3 9:00 PM, Yazd, Weather by CustomWeather, © 2015

Note: Actual official high and low records may vary slightly from our data, if they occured in-between our weather recording intervals... More about our weather records

Advertising

Yazd weather history for previous 24 hours

 ConditionsComfort  
Time TempWeatherWind HumidityBarometerVisibility
9:00 PM
Thu, Sep 3
82 °FClear.7 mph17%30.04 "Hg10 mi
8:30 PM84 °FPassing clouds.7 mph18%30.04 "HgN/A
8:00 PM84 °FPassing clouds.12 mph18%30.01 "HgN/A
7:30 PM86 °FPassing clouds.14 mph18%30.01 "HgN/A
7:00 PM88 °FPassing clouds.12 mph17%30.01 "HgN/A
6:30 PM88 °FPassing clouds.9 mph17%30.01 "HgN/A
6:00 PM90 °FPassing clouds.9 mph16%30.01 "HgN/A
5:30 PM90 °FPassing clouds.7 mph17%29.98 "HgN/A
4:30 PM90 °FPassing clouds.9 mph16%30.01 "HgN/A
3:30 PM90 °FPassing clouds.9 mph16%30.01 "HgN/A
2:30 PM88 °FPassing clouds.2 mph17%30.04 "HgN/A
1:30 PM86 °FPassing clouds.5 mph18%30.07 "HgN/A
12:30 PM84 °FSunny.5 mph19%30.09 "Hg10 mi
11:30 AM81 °FSunny.7 mph23%30.12 "Hg10 mi
10:30 AM79 °FSunny.7 mph24%30.12 "Hg10 mi
10:00 AM77 °FSunny.9 mph26%30.12 "Hg10 mi
9:30 AM75 °FSunny.9 mph25%30.12 "Hg10 mi
9:00 AM73 °FSunny.9 mph27%30.12 "Hg10 mi
8:30 AM72 °FSunny.9 mph29%30.12 "Hg10 mi
8:00 AM70 °FSunny.7 mph31%30.12 "Hg10 mi
7:30 AM68 °FClear.7 mph33%30.12 "Hg10 mi
7:00 AM68 °FClear.7 mph33%30.09 "Hg10 mi
6:30 AM70 °FClear.9 mph31%30.09 "Hg10 mi
6:00 AM70 °FClear.9 mph31%30.09 "Hg10 mi
5:30 AM70 °FClear.9 mph31%30.07 "Hg10 mi
4:30 AM72 °FClear.7 mph29%30.07 "Hg10 mi
3:30 AM73 °FClear.9 mph27%30.07 "Hg10 mi
2:30 AM73 °FClear.7 mph27%30.07 "Hg10 mi
1:30 AM75 °FClear.5 mph27%30.04 "Hg10 mi
12:30 AM77 °FClear.7 mph26%30.04 "Hg10 mi
11:30 PM
Wed, Sep 2
77 °FClear.5 mph28%30.04 "Hg5 mi
10:30 PM79 °FClear.5 mph26%30.04 "Hg5 mi
10:00 PM81 °FClear.5 mph24%30.04 "Hg4 mi
Weather by CustomWeather, © 2015

See weather overviewHow to use our weather pages